User: anonymous
Location: Melbourne
(37.8170°S, 144.9670°E)
Time: 14:11:21
(UTC+10:00)
Language:

Aureole 2 Rocket - Orbit

View from above orbital plane
View from above orbital plane
View from above satellite
View from above satellite

Ground track
Ground track

The orbit data is extracted from the following two-line orbital elements,

1 07004U 73107B   14241.27467770  .00063443  00000-0  16924-2 0  6992
2 07004 073.9475 076.5460 0297387 204.0507 154.7102 15.03680132 81356
Epoch (UTC): 29 August 2014 06:35:32
Eccentricity: 0.0297387
inclination: 73.9475°
perigee height: 349 km
apogee height: 762 km
right ascension of ascending node: 76.5460°
argument of perigee: 204.0507°
revolutions per day: 15.03680132
mean anomaly at epoch: 154.7102°
orbit number at epoch: 8135

The dashed part of the orbit path shows where the satellite is in the earth's shadow,  

DLR